Weather History for KAQO - December, 2012

Change the Weather History Date:

Sunday, December 9, 2012

  Actual Average (KBMQ) Record (KBMQ)
Temperature  
Mean Temperature 65 °F -  
Max Temperature 80 °F 59 °F 75 °F (2012)
Min Temperature 50 °F 38 °F 24 °F (2005)
Growing Degree Days 15 (Base 50)    
Moisture  
Dew Point 51 °F    
Average Humidity 73    
Maximum Humidity 100    
Minimum Humidity 28    
Precipitation  
Precipitation 0.00 in - - ()
Sea Level Pressure  
Sea Level Pressure 29.90 in    
Wind  
Wind Speed 4 mph (NNW)    
Max Wind Speed 17 mph    
Max Gust Speed 23 mph    
Visibility 7 miles    
Events Fog    
Averages and records for this station are not official NWS values.
T = Trace of Precipitation, MM = Missing Value Source: NWS Daily Summary

Daily Weather History Graph

Daily Weather History Graph

Search for Another Location

Airport or City:

Trip Planner

Search our weather history database for the weather conditions in past years. The results will help you decide how hot, cold, wet, or windy it might be!

Date:

Astronomy

Dec. 09, 2012 Rise Set
Actual Time 7:21 AM CST 5:33 PM CST
Civil Twilight 6:54 AM CST 5:59 PM CST
Nautical Twilight 6:24 AM CST 6:29 PM CST
Astronomical Twilight 5:55 AM CST 6:59 PM CST
Moon 3:07 AM CST (12/9) 2:31 PM CST (12/9)
Length of Visible Light 11h 05m
Length of Day
10h 12m
Waning Crescent, 18% of the Moon is Illuminated
Dec 9
Waning Crescent
Dec 13
New
Dec 19
First Quarter
Dec 28
Full
Jan 4
Last Quarter

Hourly Weather History & Observations

Time (CST) Temp. Dew Point Humidity Pressure Visibility Wind Dir Wind Speed Gust Speed Precip Events Conditions
12:15 AM 57.2 °F 55.4 °F 94% 29.87 in 7.0 mi Calm Calm - N/A   Clear
12:35 AM 55.4 °F 53.6 °F 94% 29.87 in 7.0 mi Calm Calm - N/A   Clear
12:55 AM 55.4 °F 53.6 °F 94% 29.87 in 5.0 mi Calm Calm - N/A   Clear
1:15 AM 55.4 °F 53.6 °F 94% 29.87 in 5.0 mi Calm Calm - N/A   Clear
1:35 AM 55.4 °F 53.6 °F 94% 29.87 in 5.0 mi Calm Calm - N/A   Clear
1:55 AM 57.2 °F 55.4 °F 94% 29.86 in 5.0 mi Calm Calm - N/A   Clear
2:15 AM 57.2 °F 55.4 °F 94% 29.86 in 4.0 mi Calm Calm - N/A   Clear
2:35 AM 55.4 °F 53.6 °F 94% 29.86 in 3.0 mi Calm Calm - N/A   Clear
2:55 AM 55.4 °F 53.6 °F 94% 29.85 in 4.0 mi Calm Calm - N/A   Clear
3:15 AM 53.6 °F 53.6 °F 100% 29.85 in 5.0 mi Calm Calm - N/A   Clear
3:35 AM 53.6 °F 51.8 °F 94% 29.85 in 3.0 mi Calm Calm - N/A   Clear
3:55 AM 53.6 °F 53.6 °F 100% 29.86 in 1.5 mi Calm Calm - N/A   Clear
4:15 AM 53.6 °F 53.6 °F 100% 29.85 in 1.0 mi Calm Calm - N/A   Clear
4:35 AM 53.6 °F 53.6 °F 100% 29.86 in 1.5 mi Calm Calm - N/A   Mostly Cloudy
4:55 AM 53.6 °F 53.6 °F 100% 29.86 in 3.0 mi Calm Calm - N/A   Scattered Clouds
5:15 AM 55.4 °F 53.6 °F 94% 29.87 in 4.0 mi Calm Calm - N/A   Mostly Cloudy
5:35 AM 55.4 °F 55.4 °F 100% 29.87 in 3.0 mi Calm Calm - N/A   Overcast
5:55 AM 55.4 °F 55.4 °F 100% 29.88 in 3.0 mi Calm Calm - N/A   Mostly Cloudy
6:15 AM 55.4 °F 55.4 °F 100% 29.89 in 3.0 mi Calm Calm - N/A   Scattered Clouds
6:35 AM 55.4 °F 53.6 °F 94% 29.90 in 3.0 mi Calm Calm - N/A   Scattered Clouds
6:55 AM 53.6 °F 53.6 °F 100% 29.90 in 3.0 mi Calm Calm - N/A   Scattered Clouds
7:15 AM 55.4 °F 53.6 °F 94% 29.90 in 5.0 mi Calm Calm - N/A   Overcast
7:35 AM 55.4 °F 53.6 °F 94% 29.91 in 0.5 mi Calm Calm - N/A Fog Fog
7:55 AM 55.4 °F 55.4 °F 100% 29.91 in 0.8 mi Calm Calm - N/A   Overcast
8:15 AM 55.4 °F 55.4 °F 100% 29.91 in 1.0 mi Calm Calm - N/A   Overcast
8:35 AM 57.2 °F 55.4 °F 94% 29.90 in 0.5 mi Calm Calm - N/A Fog Fog
8:55 AM 57.2 °F 57.2 °F 100% 29.91 in 0.2 mi Calm Calm - N/A Fog Fog
9:15 AM 60.8 °F 60.8 °F 100% 29.92 in 1.8 mi Calm Calm - N/A   Overcast
9:35 AM 62.6 °F 62.6 °F 100% 29.93 in 5.0 mi Calm Calm - N/A   Scattered Clouds
9:55 AM 64.4 °F 62.6 °F 94% 29.94 in 6.0 mi Calm Calm - N/A   Clear
10:15 AM 66.2 °F 62.6 °F 88% 29.93 in 7.0 mi Calm Calm - N/A   Clear
10:35 AM 68.0 °F 62.6 °F 83% 29.93 in 7.0 mi West 3.5 mph - N/A   Clear
10:55 AM 71.6 °F 62.6 °F 73% 29.93 in 8.0 mi WSW 6.9 mph - N/A   Scattered Clouds
11:15 AM 73.4 °F 62.6 °F 69% 29.92 in 9.0 mi SW 9.2 mph - N/A   Partly Cloudy
11:35 AM 75.2 °F 62.6 °F 65% 29.91 in 10.0 mi SW 9.2 mph - N/A   Clear
11:55 AM 77.0 °F 62.6 °F 61% 29.89 in 10.0 mi SW 11.5 mph - N/A   Clear
12:15 PM 78.8 °F 62.6 °F 57% 29.88 in 10.0 mi WSW 11.5 mph - N/A   Clear
12:35 PM 78.8 °F 60.8 °F 54% 29.87 in 10.0 mi WSW 6.9 mph - N/A   Clear
12:55 PM 78.8 °F 60.8 °F 54% 29.86 in 10.0 mi WSW 11.5 mph - N/A   Partly Cloudy
1:15 PM 78.8 °F 59.0 °F 51% 29.84 in 10.0 mi West 5.8 mph - N/A   Partly Cloudy
1:35 PM 78.8 °F 53.6 °F 42% 29.83 in 10.0 mi West 10.4 mph - N/A   Clear
1:55 PM 78.8 °F 48.2 °F 34% 29.83 in 10.0 mi West 10.4 mph - N/A   Clear
2:15 PM 80.6 °F 51.8 °F 37% 29.82 in 10.0 mi NW 9.2 mph - N/A   Clear
2:35 PM 78.8 °F 51.8 °F 39% 29.82 in 10.0 mi WNW 5.8 mph - N/A   Clear
2:55 PM 80.6 °F 44.6 °F 28% 29.82 in 10.0 mi NNW 8.1 mph - N/A   Clear
3:15 PM 77.0 °F 59.0 °F 54% 29.82 in 10.0 mi North 13.8 mph - N/A   Clear
3:35 PM 77.0 °F 57.2 °F 50% 29.83 in 10.0 mi North 13.8 mph - N/A   Clear
3:55 PM 75.2 °F 57.2 °F 53% 29.83 in 10.0 mi North 15.0 mph 18.4 mph N/A   Clear
4:15 PM 71.6 °F 53.6 °F 53% 29.84 in 10.0 mi North 17.3 mph 21.9 mph N/A   Partly Cloudy
4:35 PM 71.6 °F 50.0 °F 46% 29.85 in 10.0 mi NNE 13.8 mph - N/A   Clear
4:55 PM 69.8 °F 42.8 °F 38% 29.86 in 10.0 mi North 12.7 mph 20.7 mph N/A   Clear
5:15 PM 66.2 °F 41.0 °F 40% 29.87 in 10.0 mi NNE 9.2 mph 18.4 mph N/A   Clear
5:35 PM 64.4 °F 41.0 °F 42% 29.87 in 10.0 mi NNE 13.8 mph 17.3 mph N/A   Clear
5:55 PM 62.6 °F 42.8 °F 48% 29.90 in 10.0 mi North 12.7 mph 17.3 mph N/A   Clear
6:15 PM 60.8 °F 41.0 °F 48% 29.91 in 10.0 mi North 8.1 mph - N/A   Clear
6:35 PM 59.0 °F 41.0 °F 51% 29.93 in 10.0 mi NNE 12.7 mph 17.3 mph N/A   Clear
6:55 PM 57.2 °F 42.8 °F 59% 29.94 in 10.0 mi NNE 12.7 mph 19.6 mph N/A   Clear
7:15 PM 55.4 °F 42.8 °F 63% 29.95 in 10.0 mi NNE 11.5 mph 17.3 mph N/A   Clear
7:35 PM 53.6 °F 42.8 °F 67% 29.96 in 10.0 mi North 10.4 mph 19.6 mph N/A   Clear
7:55 PM 53.6 °F 42.8 °F 67% 29.97 in 10.0 mi North 8.1 mph - N/A   Partly Cloudy
8:15 PM 53.6 °F 42.8 °F 67% 29.97 in 10.0 mi North 11.5 mph 20.7 mph N/A   Partly Cloudy
8:35 PM 51.8 °F 41.0 °F 67% 29.99 in 10.0 mi North 11.5 mph - N/A   Partly Cloudy
8:55 PM 51.8 °F 41.0 °F 67% 29.99 in 10.0 mi North 8.1 mph - N/A   Scattered Clouds
9:15 PM 51.8 °F 41.0 °F 67% 30.00 in 10.0 mi North 6.9 mph - N/A   Clear
9:35 PM 51.8 °F 41.0 °F 67% 30.01 in 10.0 mi North 8.1 mph - N/A   Mostly Cloudy
9:55 PM 51.8 °F 41.0 °F 67% 30.02 in 10.0 mi North 8.1 mph - N/A   Overcast
10:15 PM 51.8 °F 39.2 °F 62% 30.02 in 10.0 mi NNE 8.1 mph - N/A   Overcast
10:35 PM 53.6 °F 37.4 °F 54% 30.03 in 10.0 mi NNE 12.7 mph 17.3 mph N/A   Overcast
10:55 PM 51.8 °F 35.6 °F 54% 30.04 in 10.0 mi NNE 12.7 mph 18.4 mph N/A   Overcast
11:15 PM 51.8 °F 33.8 °F 50% 30.05 in 10.0 mi NNE 12.7 mph 16.1 mph N/A   Overcast
11:35 PM 50.0 °F 33.8 °F 54% 30.05 in 10.0 mi NNE 13.8 mph 23.0 mph N/A   Overcast
11:55 PM 50.0 °F 33.8 °F 54% 30.05 in 10.0 mi North 12.7 mph 17.3 mph N/A   Overcast